Погода в Верхошижемье

Россия / Кировская область     58°00′41″N   49°06′08″E
темп.,
°C
ветер,
м/с
пор.,
м/с
влажн.,
%
обл.,
%
осадки,
мм/ч
давл.,
гПа
погр.,
м
12 апреля, пн
пн1200:00+2ююз24100100 0.0 1035133
03:00+2ююз12100100 0.0 103757
06:00+1ссв2398100 0.0 1038129
09:00+6св22771 0.0 1039275
12:00+10всв116032 0.0 1039787
15:00+10вюв2259100 0.0 1039823
18:00+6вюв2588100 0.0 1039119
21:00+3юв2689100 0.0 1040121
13 апреля, вт
вт1300:00+2юв2795100 0.0 1039142
03:00+2юв2895100 0.0 1038141
06:00+4ююв31092100 0.0 1037250
09:00+7ююв498199 0.0 1036343
12:00+12ю4873100 0.0 1034528
15:00+13ю4877100 0.0 1032564
18:00+11ю399179 0.0 1031340
21:00+9ю3119479 0.0 1031234
14 апреля, ср
ср1400:00+7ю31093100 0.0 1030195
03:00+6ююз279394 0.0 1030118
06:00+6ю268976 0.0 1029119
09:00+12ююз366351 0.0 1029328
12:00+16ююз46479 0.0 1027849
15:00+17ююз46415 0.0 10261106
18:00+13ю256132 0.0 102597
21:00+9ю37726 0.0 1025114
15 апреля, чт
чт1500:00+7ююз36765 0.0 1024102
03:00+5ююз258259 0.0 102381
06:00+6ююз258353 0.0 102299
09:00+12юз34605 0.0 1021374
12:00+16юз34445 0.0 10201061
15:00+17зюз233841 0.0 10181595
18:00+14юз11535 0.0 101710
21:00+10ююз12675 0.0 101710
16 апреля, пт
пт1600:00+7ссв238311 0.0 101747
03:00+5ссв259725 0.0 1016116
06:00+5ссв369448 0.0 1016215
09:00+7ссв3582100 0.0 1016509
12:00+2с41196100 0.8 1017452
15:00+6с4968100 2.2 10181368
18:00+5с510556 0.1 10181128
21:00+2ссз311690 0.1 1020425